Theta_e
312 320 322 316 313 312 317 319 317 315 317 319 336 339 348 346 354 354 352 357 362 358 358 346 348 347 343 338 336 333 330 325 329 336 342 344 339 337 339 343 346 340 342 344 344 344 343 338 337
319 321 318 309 312 313 314 314 315 315 316 315 322 337 343 349 346 354 358 359 361 356 347 346 347 346 343 339 336 334 330 326 328 332 337 340 339 340 340 343 340 336 340 344 342 342 341 339 337
319 320 313 309 309 313 315 315 313 313 312 314 328 334 338 340 340 354 355 359 360 350 345 346 347 346 344 341 336 334 331 328 329 332 335 338 338 339 340 338 334 335 337 339 339 339 340 338 335
318 312 309 315 318 316 317 315 311 312 315 317 326 333 331 326 323 342 353 357 355 352 346 346 346 345 344 342 338 335 332 329 330 331 332 333 336 338 336 335 335 338 339 338 336 335 335 337 333
312 308 313 315 317 316 314 312 310 313 313 313 322 331 328 318 341 358 357 356 355 353 350 345 344 344 344 343 340 336 335 330 329 331 333 333 333 334 334 334 335 337 337 337 339 339 339 337 332
310 306 311 313 315 314 312 310 311 312 313 313 314 320 319 315 318 355 359 356 355 354 352 348 343 342 342 342 342 338 337 333 329 330 332 333 334 334 335 335 336 338 339 340 341 340 336 333 328
310 310 312 314 314 314 313 309 313 312 312 314 312 319 317 312 322 357 359 357 356 355 353 351 346 344 342 341 342 340 338 336 332 331 331 331 333 334 335 335 337 339 340 340 338 334 332 330 326
305 306 312 312 312 313 312 310 311 313 315 312 313 314 313 313 326 357 360 359 358 355 354 352 348 346 344 342 341 342 340 338 335 331 332 331 333 335 337 340 340 340 340 340 335 332 330 331 328
306 306 309 313 313 313 311 312 313 312 313 312 314 314 314 314 315 318 338 358 358 357 355 352 350 348 347 345 344 343 342 340 338 333 333 333 333 336 338 340 341 341 341 340 338 335 334 332 332
305 305 310 310 312 312 311 312 312 313 311 313 312 313 314 314 313 314 315 335 357 358 358 354 352 349 349 346 345 346 345 342 341 337 334 336 337 337 338 339 340 342 340 339 340 337 335 332 332
307 309 309 312 312 310 311 311 312 313 312 311 311 311 310 312 312 312 314 316 329 355 358 357 356 353 351 348 345 346 346 345 344 340 337 338 340 339 339 339 339 339 339 339 338 338 333 332 330
312 311 312 311 312 310 311 310 311 311 312 310 309 309 309 309 309 310 312 313 315 339 328 347 356 355 353 351 348 346 351 350 347 344 341 340 345 340 339 338 337 338 337 334 334 336 333 331 330
312 312 311 310 308 308 310 311 311 310 310 309 309 309 309 309 309 312 313 313 314 315 315 321 345 356 355 353 350 348 348 350 347 344 342 341 343 342 339 337 337 338 337 334 332 332 333 334 332
311 311 311 312 310 310 312 312 310 310 309 309 309 308 308 308 310 311 312 313 313 314 315 316 341 349 354 354 351 349 348 346 344 344 343 343 343 343 338 339 338 338 336 333 332 331 334 337 336
312 313 310 310 309 310 309 311 311 309 308 309 309 308 308 308 310 310 312 312 314 315 315 315 329 339 353 352 352 351 350 346 343 342 344 343 343 342 340 341 340 336 336 334 336 337 339 339 336
310 308 309 308 307 309 311 310 309 309 307 310 311 311 310 309 308 310 313 314 316 315 315 315 315 316 342 352 350 352 350 347 346 346 346 344 342 341 339 342 342 338 338 338 340 341 341 342 339
306 310 310 308 308 308 312 311 310 310 308 310 310 310 310 309 310 311 312 313 314 314 315 314 314 316 326 350 350 351 348 347 346 348 348 347 345 343 341 339 341 339 337 340 341 340 342 345 343
311 309 308 307 309 309 310 309 308 310 309 309 308 307 307 310 312 313 316 316 316 316 316 314 314 320 332 349 350 349 348 347 348 346 347 345 345 344 342 342 341 337 339 338 342 341 342 343 342
310 308 308 308 308 311 310 309 309 310 308 308 311 312 315 316 315 316 317 317 316 314 315 315 315 315 338 347 351 348 348 346 345 344 347 346 345 346 344 343 342 341 340 338 338 341 342 342 343
310 311 310 310 310 311 310 312 310 309 310 312 316 316 317 316 316 317 317 316 316 316 312 314 315 314 318 340 345 346 345 342 342 340 340 341 346 347 347 345 344 343 342 342 339 341 341 341 342
311 312 311 311 311 311 310 310 312 311 313 317 317 317 316 316 316 316 316 316 315 316 315 313 315 314 315 325 342 344 343 339 339 336 334 332 336 341 343 345 344 342 343 343 343 342 341 340 341
313 311 311 312 312 311 311 311 309 312 314 318 318 317 317 316 315 315 315 316 316 317 319 315 314 315 316 324 340 340 339 335 329 327 327 332 335 338 339 341 343 343 344 344 343 342 340 341 337
312 312 313 312 311 310 310 311 311 313 318 319 319 319 317 316 315 316 314 314 316 316 319 322 318 316 316 319 330 338 333 329 327 328 329 330 329 330 337 342 341 342 342 343 343 343 342 341 340
312 311 309 306 307 310 311 313 311 311 318 320 320 319 319 318 316 316 316 315 314 316 317 320 322 323 322 323 330 333 331 326 325 330 331 328 328 330 330 332 343 343 342 340 340 341 341 340 336
310 309 310 310 308 309 311 313 312 311 319 321 320 319 317 317 316 316 316 315 314 314 316 317 320 325 325 326 327 328 325 324 324 328 333 329 330 331 330 334 336 340 339 340 339 338 338 338 334
312 310 309 315 313 312 312 313 312 314 320 320 320 319 317 317 317 318 316 315 315 315 315 317 318 320 323 325 329 330 330 328 328 331 334 329 331 331 331 333 339 340 339 336 337 337 335 334 331
312 312 309 312 310 310 311 311 311 320 319 320 320 319 317 316 317 316 315 315 314 316 315 316 318 321 323 323 324 325 325 327 333 335 336 334 334 332 333 332 339 340 338 337 334 331 326 324 322
312 309 312 308 313 316 313 312 311 315 319 319 315 315 314 314 316 315 315 315 314 316 315 315 317 319 322 324 324 325 325 326 327 333 336 335 334 333 334 335 337 337 335 333 331 325 321 322 317
313 312 312 313 312 315 318 312 310 317 316 315 315 310 311 312 314 315 315 315 315 316 315 314 316 319 319 322 325 325 326 326 331 332 333 333 332 331 330 333 334 332 329 324 322 318 318 318 313
311 311 311 311 310 312 310 316 311 310 313 315 310 310 310 310 311 316 317 318 318 315 314 313 314 316 318 319 323 326 326 327 330 332 331 330 328 327 328 327 326 323 320 319 317 315 313 313 312
Wind_Speed
10 6 4 3 4 5 3 3 3 10 9 1 3 3 6 3 2 3 4 7 1 9 24 23 22 20 18 17 17 16 15 16 19 21 22 23 23 23 22 20 19 19 18 16 13 12 9 8 7
10 4 3 2 5 4 3 4 7 7 8 9 4 2 3 2 0 3 1 4 6 14 23 22 21 20 19 16 15 15 14 15 17 19 21 22 22 21 21 20 19 18 17 15 13 11 9 7 5
5 6 4 4 3 3 0 5 8 8 10 3 1 4 1 4 6 1 3 5 6 19 21 21 20 19 18 16 16 15 15 15 16 17 19 20 21 21 20 19 18 17 16 14 13 11 9 7 5
4 6 4 4 3 1 2 6 6 11 7 6 5 6 4 6 11 9 1 5 7 18 20 19 18 17 17 17 16 15 15 15 15 16 18 18 19 19 19 18 18 16 15 13 12 10 9 8 6
6 3 4 3 2 1 4 4 6 7 6 7 7 4 4 12 16 4 5 5 7 15 18 18 18 17 16 16 17 16 16 15 15 15 16 18 18 18 18 17 17 15 14 12 11 10 9 7 6
4 3 4 2 1 4 5 4 5 7 5 8 10 3 2 18 24 7 4 7 8 12 17 17 16 16 16 16 17 17 16 16 16 15 16 17 17 17 17 16 16 14 13 12 11 10 9 7 6
6 4 4 3 0 2 4 8 3 5 6 8 4 3 3 13 21 8 2 3 4 9 13 16 16 15 15 15 16 17 17 16 16 16 15 16 16 17 16 15 15 14 13 12 10 10 9 7 7
5 4 2 1 1 0 5 7 4 3 3 7 3 3 5 5 14 11 4 4 6 9 12 15 16 16 16 16 17 17 18 18 17 16 16 15 16 17 16 15 15 15 13 12 10 10 9 8 8
3 5 1 1 2 4 4 5 4 3 2 4 3 3 6 11 8 8 5 7 8 10 12 14 17 18 18 18 17 18 18 17 17 17 17 16 17 18 17 17 15 14 14 13 12 11 11 10 10
5 4 2 1 3 2 3 2 4 5 7 3 4 5 10 14 8 7 4 5 10 13 15 16 18 21 20 20 19 19 19 20 20 19 19 18 18 18 18 19 18 16 15 15 14 13 13 13 13
2 3 2 1 2 1 2 1 3 3 7 6 9 10 5 10 10 6 7 9 10 14 16 19 20 22 21 21 21 21 22 21 21 21 20 20 19 18 20 20 20 19 18 17 17 16 15 15 15
4 2 2 4 2 4 5 3 3 4 7 7 11 8 6 8 9 12 12 12 13 13 16 22 23 24 24 22 23 24 21 23 24 24 23 21 21 20 21 22 21 19 19 19 18 17 17 17 15
4 2 4 7 7 4 3 6 4 8 10 9 7 9 10 10 13 23 22 18 17 18 21 20 25 26 26 25 26 24 22 23 26 25 25 23 23 22 23 23 21 21 20 20 19 19 19 18 17
3 4 7 3 5 3 1 2 2 7 6 9 7 10 10 10 13 16 22 26 22 24 22 21 24 28 28 27 29 29 26 25 25 25 25 24 21 24 24 24 23 22 22 21 20 20 20 20 18
3 6 5 4 7 5 3 3 5 9 8 11 11 10 8 9 19 18 26 29 31 29 26 25 25 28 31 29 29 29 25 24 24 25 26 24 25 24 23 25 24 24 22 21 19 19 19 18 17
6 6 6 8 6 2 7 8 7 11 9 15 15 13 11 11 10 26 32 29 28 29 28 29 27 28 33 33 31 30 27 25 25 25 24 24 24 23 22 25 26 25 23 22 21 19 18 18 19
8 4 5 9 5 4 4 10 11 15 9 16 15 16 16 14 14 23 29 29 31 31 31 29 29 27 29 33 32 31 28 26 24 23 24 23 22 23 22 25 25 24 25 25 24 21 18 19 20
5 4 5 6 6 1 4 8 9 14 7 11 9 10 11 12 13 25 29 28 31 30 28 30 25 29 30 31 31 28 24 26 25 23 23 21 21 22 21 21 23 23 24 28 27 25 22 18 16
3 4 7 6 7 3 8 7 12 16 8 8 8 8 10 12 11 22 26 31 31 29 27 29 31 30 30 29 28 27 29 28 26 24 22 21 22 24 22 21 22 22 25 27 30 27 26 20 17
5 5 7 6 4 2 9 14 13 9 5 2 6 9 11 13 15 19 26 26 27 32 27 24 26 32 31 33 30 25 28 22 23 19 17 17 19 21 25 25 23 26 26 28 27 25 19 20 17
4 4 4 6 4 5 5 7 1 3 3 6 5 5 7 9 13 14 20 24 28 32 28 19 24 31 30 32 27 19 12 11 11 11 7 7 10 15 19 25 28 29 30 31 26 24 23 19 19
4 4 5 7 4 6 3 7 4 1 5 5 7 8 8 12 12 14 18 29 33 33 24 13 14 21 27 24 24 23 20 11 7 3 4 4 7 12 15 21 28 30 28 28 29 25 19 21 16
6 4 6 8 4 2 2 1 6 3 3 5 7 8 9 8 9 14 17 27 33 36 34 23 9 10 17 23 20 14 10 7 4 3 1 3 7 12 15 20 24 28 30 29 29 32 28 30 24
3 4 2 4 3 1 3 3 4 3 4 4 4 7 8 8 8 11 24 29 33 39 40 32 10 8 2 13 17 14 12 6 7 8 5 4 10 13 16 17 22 27 27 30 30 28 31 23 18
8 7 4 6 4 4 2 4 8 7 4 5 6 8 10 8 7 7 15 22 29 32 35 29 25 21 5 9 7 10 7 6 10 11 10 9 13 16 17 15 18 23 25 26 27 27 22 18 16
0 5 4 5 3 10 10 7 5 3 4 5 6 7 8 10 8 9 7 19 25 29 32 30 31 30 24 17 5 3 6 10 13 14 13 14 15 17 17 19 20 21 23 19 19 18 19 20 19
3 3 4 3 1 3 4 6 7 0 2 2 7 6 8 8 8 7 9 17 26 26 29 23 23 28 26 19 15 11 9 4 9 13 14 17 16 17 19 18 19 19 22 20 17 17 19 22 23
3 6 0 2 4 5 5 5 5 4 5 6 6 8 9 9 8 7 6 13 27 26 26 19 15 18 21 20 16 13 11 10 7 8 12 13 16 16 14 12 16 16 18 20 21 23 24 26 24
3 1 3 2 4 5 3 6 6 6 8 7 8 9 9 10 8 6 4 10 11 32 25 15 15 15 17 17 15 12 11 10 9 10 11 11 11 13 12 10 12 15 18 20 25 27 28 27 27
4 6 7 4 6 5 3 12 5 7 2 3 6 7 8 7 8 6 7 10 8 12 20 16 12 14 15 15 13 11 10 12 13 11 9 7 9 9 7 7 10 14 19 24 27 30 30 31 27
Wind_Direction
344 349 5 53 57 66 340 45 287 319 331 31 260 261 162 87 156 211 338 171 235 195 192 183 179 172 171 167 161 154 154 155 159 162 164 165 165 165 167 167 167 168 169 170 170 169 170 170 179
349 3 46 72 79 60 306 276 326 259 275 300 229 173 8 73 211 298 54 182 217 174 170 178 181 176 173 171 164 160 159 159 162 165 169 173 172 173 169 169 171 172 173 176 179 182 183 181 191
9 20 73 84 94 117 348 320 294 294 300 273 188 96 133 353 357 324 315 190 192 178 178 181 183 183 177 174 172 168 164 165 165 166 170 173 174 174 172 172 173 175 177 182 188 195 201 206 209
23 17 37 78 99 192 342 312 313 330 335 32 338 50 40 31 336 322 303 170 178 184 184 187 187 189 183 181 180 176 171 172 173 172 175 176 178 178 177 178 178 182 185 192 199 204 210 216 224
43 55 55 71 57 279 274 297 319 346 5 323 336 358 68 358 12 13 165 178 183 188 192 194 194 195 193 189 188 185 181 181 183 181 182 183 185 185 185 186 186 190 193 196 204 209 215 226 238
46 97 61 93 348 307 306 337 332 351 353 340 19 42 79 352 9 356 214 191 194 196 197 202 203 205 203 199 198 194 191 190 190 191 191 191 192 193 194 194 195 198 200 205 211 220 227 235 247
107 74 164 135 74 358 339 329 31 339 348 353 293 37 325 357 8 3 258 250 217 204 206 208 211 213 216 213 208 204 198 199 199 198 199 199 199 200 201 203 205 207 209 215 221 230 239 245 259
95 86 93 22 89 169 327 347 298 24 333 297 2 9 310 323 12 4 328 266 254 228 216 216 219 221 222 222 219 215 208 205 205 204 206 206 206 208 211 214 216 220 223 228 233 241 251 262 269
102 61 49 109 71 285 325 9 294 295 336 317 19 259 277 341 1 21 345 292 254 232 228 224 224 224 226 226 225 219 216 216 214 211 210 210 211 214 217 223 227 231 235 240 245 255 264 272 275
74 84 256 226 323 315 287 277 292 354 322 293 298 263 296 320 335 348 318 273 259 238 230 227 228 228 229 228 224 224 219 215 216 217 215 215 217 220 224 228 233 238 244 248 252 259 267 272 278
146 120 196 223 250 281 230 266 321 288 326 304 294 308 298 306 308 312 281 289 264 253 250 239 236 234 233 229 226 223 221 220 220 219 219 219 222 224 226 230 235 240 244 248 251 258 266 273 277
81 58 94 271 298 317 314 280 315 197 242 288 296 295 290 290 288 289 287 280 270 252 251 252 243 237 237 235 232 227 222 219 220 222 219 217 223 229 229 230 236 239 243 247 251 257 265 271 276
52 303 291 282 285 245 333 342 306 318 318 322 309 314 297 299 296 295 293 284 264 245 256 259 246 239 238 233 233 232 230 228 228 227 225 224 228 234 236 237 238 239 245 248 253 257 263 271 276
289 266 288 284 344 112 59 280 138 279 273 321 324 303 301 299 293 304 298 292 281 264 256 251 240 238 237 235 235 237 241 241 238 235 234 235 236 242 242 242 241 242 245 249 252 256 264 271 276
288 355 349 26 356 14 262 338 340 287 343 323 317 305 291 276 296 287 297 294 292 286 275 249 236 240 236 235 237 241 243 246 242 239 241 240 249 253 255 248 248 247 248 250 251 257 266 270 269
29 46 7 307 346 342 67 284 285 295 334 314 313 310 308 306 287 301 303 299 294 295 285 255 238 239 237 235 235 239 240 238 242 244 246 248 251 255 261 258 254 253 252 252 253 259 265 270 271
12 329 324 317 337 316 63 304 305 311 327 313 314 323 319 317 316 311 315 312 308 299 292 276 253 238 236 232 234 236 238 242 248 252 254 253 253 253 253 254 256 260 256 256 258 261 263 269 271
277 304 268 259 290 270 300 265 290 297 310 290 312 311 312 315 308 320 333 326 324 298 285 281 255 242 230 227 229 235 243 246 248 251 252 253 256 256 245 252 251 255 257 256 257 257 257 266 260
216 227 252 257 266 220 256 261 270 280 306 326 341 321 319 316 304 310 330 335 330 314 278 266 258 238 235 222 221 227 234 237 239 241 244 251 254 255 252 246 243 251 255 256 257 266 258 250 237
218 250 266 283 257 206 280 286 243 272 280 46 329 334 334 325 324 330 336 336 330 324 295 268 262 241 228 228 222 214 224 233 236 237 247 255 258 255 257 254 245 238 241 251 254 257 244 242 222
264 232 269 252 301 252 297 288 202 301 15 4 359 318 328 332 329 334 344 345 343 334 318 279 261 240 230 230 219 211 210 208 202 215 250 290 290 279 268 256 250 244 236 232 236 240 233 222 214
299 191 253 274 329 285 70 289 294 287 307 2 343 347 334 340 345 353 354 2 360 340 349 331 283 258 238 224 209 196 192 190 210 106 47 353 338 306 283 265 254 245 231 233 238 235 232 232 209
228 288 245 264 245 21 270 1 268 218 301 322 327 329 321 318 345 351 355 359 7 357 9 5 336 258 233 223 217 218 185 195 163 137 49 337 319 308 289 274 266 251 243 239 240 232 213 228 222
302 336 344 51 100 35 229 96 274 259 219 295 294 310 314 317 332 353 357 1 6 4 12 20 19 71 149 202 200 218 209 186 180 194 218 266 293 303 301 282 270 266 257 244 236 231 221 227 216
33 40 332 344 1 238 239 317 240 263 211 222 264 298 303 304 328 8 3 357 355 357 9 15 31 50 85 138 157 215 225 219 231 224 228 252 276 289 297 283 278 267 257 254 231 222 217 197 191
149 142 145 294 268 283 282 244 253 236 179 236 273 275 293 330 344 356 360 1 347 350 353 18 28 36 47 58 70 213 235 244 237 232 235 254 271 285 293 286 273 265 259 236 209 192 182 177 166
191 187 190 219 257 5 241 289 317 70 287 289 273 313 312 310 315 329 348 16 347 338 341 349 27 28 37 46 49 50 41 341 278 267 255 260 273 289 295 289 269 259 249 227 206 181 160 151 146
189 163 5 19 291 267 284 258 242 282 242 263 312 317 304 311 309 314 339 17 352 335 330 338 24 31 30 31 31 30 18 5 338 294 274 270 279 290 305 297 259 236 220 205 194 165 154 147 137
281 242 69 142 166 213 290 262 208 222 245 282 297 311 313 321 307 294 341 18 358 333 331 330 15 32 30 23 15 5 5 350 324 301 290 290 297 305 311 286 236 212 196 183 167 157 150 143 133
173 218 167 158 245 236 202 267 231 259 327 323 298 300 338 332 346 275 298 334 305 315 306 320 5 30 26 20 13 5 351 343 332 322 314 321 318 313 300 245 196 175 170 170 158 148 142 138 139